This demonstration page uses our WeatherBlox Daily Observations layout. Learn more.

38.88101, -77.10428

Hourly Observations for March 15, 2018

Temp ( °F °C ) Dew Point ( °F °C ) Humidity (%) Winds ( mph kmh ) Pressure ( in mb ) Visibility ( mi km ) Precip ( " mm )
12:52 am 00:52 Cloudy 36 2.2 14 -10 40 40 W 14 22 29.85 1011 10 16.0934 0 0
1:52 am 01:52 Mostly Cloudy 36 2.2 15 -9.4 42 42 W 9 15 29.85 1011 10 16.0934 0 0
2:52 am 02:52 Mostly Clear 35 1.7 16 -8.9 46 46 W 12 19 29.83 1010 10 16.0934 0 0
3:52 am 03:52 Mostly Clear 34 1.1 16 -8.9 48 48 WSW 6 9 29.82 1010 10 16.0934 0 0
4:52 am 04:52 Partly Cloudy 32 0 18 -7.8 56 56 SSW 10 17 29.81 1010 10 16.0934 0 0
5:52 am 05:52 Mostly Clear 31 -0.6 16 -8.9 54 54 SW 7 11 29.81 1010 10 16.0934 0 0
6:52 am 06:52 Mostly Clear 32 0 17 -8.3 54 54 SSW 6 9 29.8 1009 10 16.0934 0 0
7:52 am 07:52 Mostly Sunny 32 0 16 -8.9 52 52 SW 9 15 29.8 1009 10 16.0934 0 0
8:52 am 08:52 Mostly Sunny 36 2.2 17 -8.3 46 46 SW 13 20 29.77 1008 10 16.0934 0 0
9:52 am 09:52 Mostly Sunny 40 4.4 18 -7.8 41 41 SSW 12 19 29.76 1008 10 16.0934 0 0
10:52 am 10:52 Mostly Sunny 44 6.7 19 -7.2 37 37 SSW 10 17 29.72 1007 10 16.0934 0 0
11:52 am 11:52 Cloudy 46 7.8 19 -7.2 34 34 SW 16 26 29.7 1006 10 16.0934 0 0
12:52 pm 12:52 Mostly Cloudy 47 8.3 20 -6.7 34 34 SW 14 22 29.68 1005 10 16.0934 0 0
1:52 pm 13:52 Mostly Cloudy 51 10.6 22 -5.6 32 32 W 14 22 29.65 1004 10 16.0934 0 0
2:52 pm 14:52 Mostly Cloudy 51 10.6 23 -5 33 33 W 14 22 29.62 1003 10 16.0934 0 0
3:41 pm 15:41 Mostly Cloudy 53 11.7 21 -6.1 28 28 WNW 22 35 29.62 1003 10 16.0934 0 0
3:52 pm 15:52 Mostly Cloudy 54 12.2 20 -6.7 26 26 NW 23 37 29.62 1003 10 16.0934 0 0
4:52 pm 16:52 Partly Cloudy 53 11.7 19 -7.2 26 26 NW 17 28 29.62 1003 10 16.0934 0 0
5:52 pm 17:52 Partly Cloudy 52 11.1 18 -7.8 26 26 WNW 18 30 29.65 1004 10 16.0934 0 0
6:52 pm 18:52 Mostly Sunny 51 10.6 19 -7.2 28 28 NW 15 24 29.67 1005 10 16.0934 0 0
7:52 pm 19:52 Mostly Clear 49 9.4 18 -7.8 29 29 NNW 12 19 29.68 1005 10 16.0934 0 0
8:52 pm 20:52 Clear 45 7.2 20 -6.7 37 37 N 7 11 29.7 1006 10 16.0934 0 0
9:52 pm 21:52 Clear 42 5.6 21 -6.1 43 43 N 9 15 29.71 1006 10 16.0934 0 0
10:52 pm 22:52 Clear 41 5 20 -6.7 43 43 NNW 6 9 29.72 1007 10 16.0934 0 0
11:52 pm 23:52 Clear 42 5.6 20 -6.7 41 41 NNW 12 19 29.75 1007 10 16.0934 0 0

Powered by AerisWeather